Location: Aalen
(48.8330°N, 10.1000°E)
Time: 04:48:34
(UTC+02:00)

Transit 2A - Pass Details

Date: 30 July 2021
Orbit: 594 x 964 km, 66.7° (Epoch: 27 September)

Event Time Altitude Azimuth Distance (km) Brightness Sun altitude
Rises 15:19:41 0° 327° (NNW) 3,156 9.1 51.9°
Reaches altitude 10° 15:22:07 10° 335° (NNW) 2,290 8.5 51.6°
Maximum altitude 15:27:02 38° 44° (NE) 1,216 7.1 51.0°
Drops below altitude 10° 15:32:26 10° 112° (ESE) 2,514 8.6 50.3°
Sets 15:35:12 0° 120° (ESE) 3,503 9.3 49.9°
